GEFSSGP_con_prob3kmehi_012.txt.gz
EHI
0 0 0 0 3 7 4 1 0 0 0 0 0 0 0 0 0 0 0 1 2 1 11 41 52 28 6 0 0 0 0 0 0 0 0 0 0 0 0 0 0 0 0 0 0 0 0 0 0
0 0 0 0 1 3 2 0 0 0 0 0 0 0 0 0 0 0 0 1 1 1 8 34 57 42 12 1 0 0 0 0 0 0 0 0 0 0 0 0 0 0 0 0 0 0 0 0 0
0 0 0 0 0 0 0 0 0 0 0 0 0 0 0 0 0 0 0 1 2 1 6 34 64 57 23 4 0 0 0 0 0 0 0 0 0 0 0 0 0 0 0 0 0 0 0 0 0
0 0 0 0 0 0 0 0 0 0 0 0 0 0 0 0 0 0 0 4 7 6 7 31 62 59 29 7 0 0 0 0 0 0 0 0 0 0 0 0 0 0 0 0 0 0 0 0 0
0 0 0 0 0 0 0 0 0 0 0 0 0 0 0 0 0 0 0 8 19 20 13 25 48 47 23 7 1 0 0 0 0 0 0 0 0 0 0 0 0 0 0 0 0 0 0 0 0
0 0 0 0 0 0 0 0 0 0 0 0 0 0 0 0 0 0 0 10 29 40 31 24 30 27 12 4 2 1 0 0 0 0 0 0 0 0 0 0 0 0 0 0 0 0 0 0 0
0 0 0 0 0 0 0 0 0 0 0 0 0 0 0 0 0 0 0 9 30 53 49 24 11 10 5 3 2 1 0 0 0 0 0 0 0 0 0 0 0 0 0 1 1 1 1 1 2
0 0 0 0 0 0 0 0 0 0 0 0 0 0 0 0 0 0 0 7 29 58 60 29 5 1 1 2 2 1 1 0 0 0 0 0 0 1 2 2 1 1 2 7 10 9 9 9 8
0 0 0 0 0 0 0 0 0 0 0 0 1 4 5 2 0 0 0 7 30 63 70 43 18 9 4 1 2 2 1 0 0 1 3 3 2 2 8 17 25 26 26 32 36 32 27 20 13
0 0 0 0 0 0 0 0 0 0 0 0 4 11 13 7 1 0 0 10 39 73 79 60 46 34 14 7 11 6 2 4 4 5 13 16 8 2 13 41 65 69 63 56 51 45 33 19 10
0 0 0 0 0 0 0 0 0 0 0 1 6 15 18 10 2 0 0 17 54 83 86 77 76 67 37 25 32 23 13 20 24 23 30 34 21 6 16 54 86 91 77 54 39 32 22 9 4
0 0 0 0 0 0 0 0 0 0 0 1 4 11 13 8 3 4 6 28 68 90 88 88 92 89 71 58 60 53 41 47 56 54 49 47 37 17 20 55 85 87 74 53 39 37 30 18 12
0 0 0 0 0 0 0 0 0 0 0 0 1 5 7 5 7 16 28 50 78 92 91 93 98 99 94 88 86 81 74 75 80 81 73 60 54 43 42 67 88 85 71 61 62 65 63 51 41
0 0 0 0 0 0 0 0 0 0 0 1 2 7 16 21 25 42 62 76 85 91 93 96 99 100 100 100 98 95 89 86 88 93 91 82 75 75 78 87 95 90 72 62 72 82 84 77 70
0 0 0 0 0 0 0 0 0 0 1 2 5 17 38 55 61 72 85 89 87 90 95 96 96 98 100 100 98 94 85 77 83 94 98 96 94 96 99 99 99 96 84 74 77 86 87 83 75
0 0 0 0 0 0 0 0 0 0 1 3 7 23 56 82 89 91 94 92 88 90 95 94 88 91 96 98 96 91 80 73 80 92 98 100 100 100 100 100 99 99 96 91 87 87 87 81 74
0 0 0 0 0 0 0 0 0 0 0 1 6 25 57 82 90 92 93 91 89 90 93 91 82 80 88 94 96 92 87 84 88 95 98 99 99 99 100 100 100 100 99 96 91 89 87 83 79
0 0 0 0 0 0 0 0 0 0 0 1 8 27 51 69 77 80 81 84 88 90 92 90 82 77 83 93 97 96 95 95 96 97 98 97 97 98 99 99 100 100 98 96 93 90 88 87 86
0 0 0 0 0 0 0 0 0 0 0 2 10 28 47 63 69 64 61 69 80 88 89 87 83 79 84 94 98 99 98 97 98 98 97 96 96 97 97 97 97 97 96 95 94 92 89 89 90
0 0 0 0 0 0 0 0 0 0 2 5 14 27 43 58 57 43 34 40 52 62 66 67 69 71 77 88 94 95 95 93 93 95 96 95 95 95 94 95 94 93 92 92 93 91 87 85 85
0 0 0 0 0 0 0 0 0 3 7 10 13 19 29 39 34 19 11 12 17 23 27 32 40 49 59 72 78 79 81 81 82 88 93 95 94 94 93 93 92 89 86 84 86 84 77 70 68
0 0 0 0 0 0 0 0 2 8 12 9 6 7 11 15 12 5 1 1 1 2 4 9 17 30 45 54 57 57 58 60 67 77 89 95 96 95 94 93 91 88 80 73 69 66 59 49 42
0 0 0 0 0 0 0 0 2 8 10 5 1 0 1 2 2 1 0 0 0 0 1 4 12 29 42 44 43 44 44 46 53 65 79 90 95 97 95 91 87 79 68 56 48 43 37 27 21
0 0 0 0 0 0 0 0 1 3 4 2 0 0 0 0 0 0 0 0 0 0 0 5 19 36 44 39 35 37 43 47 49 53 62 74 85 92 91 84 73 60 46 36 26 19 14 9 7
0 0 0 0 0 0 0 0 0 0 0 0 0 0 0 0 0 0 0 0 0 0 2 10 25 36 37 30 25 30 39 46 46 44 46 55 67 76 76 66 52 36 24 16 9 4 2 1 1
0 0 0 0 0 0 0 0 0 0 0 0 0 0 0 0 0 0 0 0 0 2 5 14 25 30 25 18 16 21 28 32 32 32 34 39 45 50 46 38 27 16 8 4 1 0 0 0 0
0 0 0 0 0 0 0 0 0 0 0 0 0 0 0 0 0 0 0 0 0 3 8 13 19 20 14 9 9 11 13 15 14 16 20 23 24 22 18 14 10 5 1 0 0 0 0 0 0
0 0 0 0 0 0 0 0 0 0 0 0 0 0 0 0 0 0 0 0 0 3 8 12 14 11 5 4 3 3 3 3 3 4 6 7 6 5 4 4 3 2 0 0 0 0 0 0 0
0 0 0 0 0 0 0 0 0 0 0 0 0 0 0 0 0 0 0 0 0 2 7 11 11 6 2 1 1 0 0 0 0 0 1 1 0 1 1 1 1 1 0 0 0 0 0 0 0
0 0 0 0 0 0 0 0 0 0 0 0 0 0 0 0 0 0 0 0 1 2 6 11 10 4 1 0 0 0 0 0 0 0 0 0 0 0 0 0 0 0 0 0 0 0 0 0 0

GEFSSGP_con_prob3kmehi_018.txt.gz
EHI
0 0 0 0 0 0 0 0 0 0 0 0 0 0 0 0 0 0 0 0 1 2 6 29 58 62 40 17 4 0 0 0 0 0 0 0 0 0 0 0 0 0 0 0 0 0 0 0 0
0 0 0 0 0 0 0 0 0 0 0 0 0 0 0 0 0 0 0 0 2 5 10 33 65 75 60 35 13 2 0 0 0 0 0 0 0 0 0 0 0 0 0 0 0 0 0 0 0
0 0 0 0 0 0 0 0 0 0 0 0 0 0 0 0 0 0 0 1 4 8 18 46 77 88 82 61 31 9 2 0 0 0 0 0 0 0 0 0 0 0 0 0 0 0 0 0 0
0 0 0 0 0 0 0 0 0 0 0 0 0 0 0 0 0 0 1 2 4 8 27 61 87 93 93 80 52 24 8 2 0 0 0 0 0 0 0 0 0 0 0 0 0 0 0 0 0
0 0 0 0 0 0 0 0 0 0 0 0 0 0 0 0 0 0 1 2 6 17 42 74 93 96 96 91 74 48 26 9 2 0 0 0 0 0 0 0 0 0 0 0 0 0 0 0 0
0 0 0 0 0 0 0 0 0 0 0 0 0 0 0 0 0 0 0 1 7 27 58 83 95 98 98 97 90 76 54 28 9 2 0 0 0 0 0 0 0 0 0 0 0 0 0 0 0
0 0 0 0 0 0 0 0 0 0 0 0 0 0 0 0 0 1 2 3 8 23 53 80 93 97 99 99 98 92 78 51 22 5 1 0 0 0 1 2 1 0 0 0 0 0 0 0 0
0 0 0 0 0 0 0 0 0 0 0 0 0 0 0 0 3 9 16 20 19 20 37 66 84 92 95 95 94 91 79 55 27 8 1 0 0 0 1 2 2 1 0 0 0 0 0 0 0
0 0 0 0 0 0 0 0 0 0 2 2 2 0 0 1 7 24 42 50 43 32 35 57 74 80 83 79 73 66 52 33 16 5 1 0 0 0 0 1 1 1 0 0 1 3 2 1 0
0 0 0 0 0 0 0 0 0 1 3 5 3 1 0 1 9 29 56 70 65 48 41 51 64 67 64 53 38 27 18 9 3 1 0 0 0 0 0 0 0 1 0 1 3 5 4 2 0
0 0 0 0 0 0 0 0 0 0 2 3 2 0 0 1 5 20 46 68 71 58 42 40 46 47 38 24 11 6 3 1 0 0 0 0 0 0 0 0 0 1 1 1 2 3 3 1 0
0 0 0 0 0 0 0 0 0 0 0 1 1 2 1 0 2 8 29 55 68 60 41 28 28 24 14 6 2 2 1 0 0 0 0 2 5 5 3 2 0 2 7 11 11 9 6 2 0
0 0 0 0 0 0 0 0 0 2 5 9 13 13 10 7 6 7 23 49 64 60 46 32 23 13 8 8 9 9 9 7 5 3 2 8 19 23 19 11 5 9 22 35 36 28 16 5 1
0 0 0 0 0 0 0 0 1 6 18 30 38 39 34 30 28 28 38 55 67 68 64 53 37 24 23 30 34 34 33 28 23 18 15 23 40 53 52 37 24 27 43 59 60 46 28 12 4
0 0 0 0 0 0 0 0 2 11 30 49 63 68 67 65 64 63 66 72 78 81 82 77 65 53 52 58 62 61 54 45 36 29 27 35 53 73 80 71 56 52 59 66 63 51 36 22 14
0 0 0 0 0 0 0 0 2 11 31 55 73 84 87 88 88 88 88 88 89 89 90 90 86 81 77 73 67 59 48 34 24 19 19 26 40 60 77 83 76 68 65 62 56 48 39 29 22
0 0 0 0 0 0 0 0 1 6 23 47 70 85 92 93 93 93 93 94 94 92 91 88 85 80 73 61 45 33 22 12 6 4 4 8 14 27 49 67 73 73 67 58 50 43 36 28 22
0 0 0 0 0 0 0 0 0 3 13 35 63 83 91 92 88 82 82 86 86 84 78 70 61 51 40 29 18 9 4 1 0 0 0 1 2 7 23 42 59 69 68 59 50 40 30 21 16
0 0 0 0 0 0 0 0 0 1 9 30 61 85 92 91 83 71 64 64 65 60 52 41 31 20 12 7 3 1 0 0 0 0 0 1 1 3 10 23 42 59 65 60 52 43 30 18 11
0 0 0 0 0 0 0 0 0 1 7 28 61 85 91 85 72 55 43 38 38 35 30 24 17 12 8 5 3 1 0 0 0 0 0 0 0 3 7 15 29 46 56 54 48 44 34 20 11
0 0 0 0 0 0 0 0 0 1 7 24 51 72 75 64 46 30 22 21 21 20 20 21 20 17 14 11 7 2 0 0 0 0 0 0 1 3 6 12 22 35 42 39 35 34 29 19 11
0 0 0 0 0 0 0 0 0 1 6 15 30 43 43 32 17 10 10 13 14 13 14 19 22 19 18 14 7 1 0 0 0 0 0 0 0 1 3 8 15 22 24 22 19 18 15 11 7
0 0 0 0 0 0 0 0 0 1 4 6 10 14 14 9 4 4 7 8 7 6 8 14 17 16 15 11 4 0 0 0 0 0 0 0 0 0 0 2 6 9 9 8 7 6 4 4 4
0 0 0 0 0 0 0 0 0 0 1 1 1 1 1 1 1 3 4 3 2 2 6 11 13 11 9 6 2 0 0 0 0 0 0 0 0 0 0 0 1 1 2 2 1 1 0 1 1
0 0 0 0 0 0 0 0 0 0 0 0 0 0 0 0 0 1 1 1 0 2 7 11 10 8 5 3 1 0 0 0 0 0 0 0 0 0 0 0 0 0 0 0 0 0 0 0 0
0 0 0 0 0 0 0 0 0 0 0 0 0 0 0 0 0 0 0 0 0 2 6 8 7 5 4 2 1 0 0 0 0 0 0 0 0 0 0 0 0 0 0 0 0 0 0 0 0
0 0 0 0 0 0 0 0 0 0 0 0 0 0 0 0 0 0 0 0 0 1 3 4 4 3 2 0 0 0 0 0 0 0 0 0 0 0 0 0 0 0 0 0 0 0 0 0 0
0 0 0 0 0 0 0 0 0 0 0 0 0 0 0 0 0 0 0 0 0 0 0 1 1 1 0 0 0 0 0 0 0 0 0 0 0 0 0 0 0 0 0 0 0 0 0 0 0
0 0 0 0 0 0 0 0 0 0 0 0 0 0 0 0 0 0 0 0 0 0 0 0 0 0 0 0 0 0 0 0 0 0 0 0 0 0 0 0 0 0 0 0 0 0 0 0 0
0 0 0 0 0 0 0 0 0 0 0 0 0 0 0 0 0 0 0 0 0 0 0 0 0 0 0 0 0 0 0 0 0 0 0 0 0 0 0 0 0 0 0 0 0 0 0 0 0

GEFSSGP_con_prob3kmehi_024.txt.gz
EHI
0 0 0 0 0 0 0 0 0 0 0 0 0 0 0 0 0 0 0 0 0 0 0 1 7 14 16 14 10 9 7 4 1 0 0 0 0 0 0 0 0 0 0 0 0 0 0 0 0
0 0 0 0 0 0 0 0 0 0 0 0 0 0 0 0 0 0 0 0 0 0 0 2 10 20 25 24 22 19 14 6 2 0 0 0 0 0 0 0 0 0 0 0 0 0 0 0 0
0 0 0 0 0 0 0 0 0 0 0 0 0 0 0 0 0 0 0 0 0 0 0 4 16 28 34 36 37 34 25 12 4 1 0 0 0 0 0 0 0 0 0 0 0 0 0 0 0
0 0 0 0 0 0 0 0 0 0 0 0 0 0 0 0 0 0 0 0 0 1 1 8 23 35 38 40 45 45 33 18 7 1 0 0 0 0 0 0 0 0 0 0 0 0 0 0 0
0 0 0 0 0 0 0 0 0 0 0 0 0 0 0 0 0 0 0 0 2 4 4 12 31 42 42 41 45 47 38 23 10 3 0 0 0 0 0 0 0 0 0 0 0 0 0 0 0
0 0 0 0 0 0 0 0 0 0 0 0 0 0 0 0 0 0 0 0 3 10 13 20 35 46 46 43 42 44 40 28 15 5 1 0 0 0 0 0 0 0 0 0 0 0 0 0 0
0 0 0 0 0 0 0 0 0 0 0 0 0 0 0 0 0 0 0 0 3 11 20 25 33 44 49 48 45 44 42 34 21 8 2 0 0 0 0 0 0 0 0 0 0 0 0 0 0
0 0 0 0 0 0 0 0 0 0 0 0 0 0 0 0 0 0 0 0 1 6 14 20 26 35 45 51 52 53 52 44 30 16 7 2 0 0 0 0 0 0 0 0 0 0 0 0 0
0 0 0 0 0 0 0 0 0 0 0 0 0 0 0 0 0 0 0 0 0 1 4 8 14 24 37 49 57 62 62 56 43 27 14 6 2 0 0 0 0 0 0 0 0 0 0 0 0
0 0 0 0 0 0 0 0 0 0 0 0 0 0 0 0 0 0 0 0 0 0 0 1 5 14 28 42 52 57 60 56 46 33 21 11 4 1 1 0 0 0 0 0 0 0 0 0 0
0 0 0 0 0 0 0 0 0 0 0 0 0 1 2 2 1 0 0 0 0 0 0 0 1 5 15 25 33 39 43 41 35 28 21 13 6 3 2 1 0 0 0 0 0 0 0 0 0
0 0 0 0 0 0 0 0 0 0 1 1 0 2 5 4 1 0 0 0 0 0 0 0 0 1 4 9 13 18 22 23 21 18 15 14 12 7 5 3 2 1 1 1 1 1 2 2 1
0 0 0 0 0 0 0 0 0 1 3 5 4 5 7 5 1 0 1 4 6 5 3 2 2 3 4 4 4 5 7 10 11 8 7 12 16 13 7 4 3 3 3 3 4 3 3 3 3
0 0 0 0 0 0 0 0 1 4 10 14 14 14 12 7 4 3 6 16 23 20 13 7 5 6 7 5 2 0 1 3 4 3 2 6 12 12 6 2 1 3 5 8 9 7 3 2 2
0 0 0 0 0 0 0 1 3 11 22 29 31 31 28 21 15 12 18 32 43 40 28 16 12 11 8 5 3 2 2 3 4 4 2 2 6 7 5 2 3 6 10 12 13 10 6 3 2
0 0 0 0 0 0 0 2 7 18 33 44 47 49 48 44 37 32 36 47 54 51 40 29 24 17 8 5 5 5 7 8 9 9 6 4 5 7 8 9 10 14 18 18 15 16 15 11 8
0 0 0 0 0 0 1 3 8 20 38 51 55 57 61 62 58 54 53 53 50 45 39 33 29 19 8 4 4 4 7 10 11 10 7 5 4 7 11 14 15 19 23 23 20 23 27 23 19
0 0 0 0 0 0 1 3 6 15 31 45 51 59 69 73 69 62 54 45 37 31 28 25 20 13 7 3 2 1 3 5 6 5 3 2 2 3 7 10 12 16 20 23 23 26 30 31 30
0 0 0 0 0 0 1 2 3 7 18 28 40 59 76 79 69 56 43 30 22 17 15 13 10 6 4 2 1 0 0 1 1 1 0 0 1 1 1 3 5 9 13 17 20 26 31 32 31
0 0 0 0 0 0 0 1 1 2 6 14 34 61 77 73 57 41 29 19 10 6 5 5 5 3 2 1 0 0 0 0 0 0 0 0 0 0 0 0 1 3 6 9 13 23 30 29 25
0 0 0 0 0 0 0 0 0 0 2 11 32 52 57 47 35 23 15 9 4 1 1 2 2 2 1 1 1 1 1 0 0 0 0 0 0 0 0 0 0 0 2 3 7 14 22 24 22
0 0 0 0 0 0 0 0 0 0 2 10 22 30 25 18 12 8 5 4 1 0 1 1 1 1 0 2 4 3 2 1 0 0 0 0 0 0 0 0 0 0 0 1 3 7 15 21 23
0 0 0 0 0 0 0 0 0 0 2 5 8 8 5 3 2 1 1 1 0 0 1 1 0 0 0 2 3 3 2 1 0 0 0 0 0 0 0 0 0 0 0 0 1 4 9 17 22
0 0 0 0 0 0 0 0 0 0 0 1 1 1 0 0 0 0 0 0 0 0 1 1 0 0 0 1 1 1 1 0 0 0 0 0 0 0 0 0 0 0 0 0 0 1 4 8 12
0 0 0 0 0 0 0 0 0 0 0 0 0 0 0 0 0 0 0 0 0 0 0 0 0 0 0 0 0 0 0 0 0 0 0 0 0 0 0 0 0 0 0 0 0 0 0 2 3
0 0 0 0 0 0 0 0 0 0 0 0 0 0 0 0 0 0 0 0 0 0 0 0 0 0 0 0 0 0 0 0 0 0 0 0 0 0 0 0 0 0 0 0 0 0 0 0 1
0 0 0 0 0 0 0 0 0 0 0 0 0 0 0 0 0 0 0 0 0 0 0 0 0 0 0 0 0 0 0 0 0 0 0 0 0 0 0 0 0 0 0 0 0 0 0 0 0
0 0 0 0 0 0 0 0 0 0 0 0 0 0 0 0 0 0 0 0 0 0 0 0 0 0 0 0 0 0 0 0 0 0 0 0 0 0 0 0 0 0 0 0 0 0 0 0 0
0 0 0 0 0 0 0 0 0 0 0 0 0 0 0 0 0 0 0 0 0 0 0 0 0 0 0 0 0 0 0 0 0 0 0 0 0 0 0 0 0 0 0 0 0 0 0 0 0
0 0 0 0 0 0 0 0 0 0 0 0 0 0 0 0 0 0 0 0 0 0 0 0 0 0 0 0 0 0 0 0 0 0 0 0 0 0 0 0 0 0 0 0 0 0 0 0 0

GEFSSGP_con_prob3kmehi_030.txt.gz
EHI
0 0 0 0 0 0 0 0 0 0 0 0 0 0 0 0 0 0 0 0 0 1 2 2 2 1 1 3 7 15 19 17 11 6 2 0 0 0 0 0 0 0 0 0 0 0 0 0 0
0 0 0 0 0 0 0 0 0 0 0 0 0 0 0 0 0 0 0 0 0 0 1 2 3 3 4 6 10 15 19 17 12 6 3 1 0 0 0 0 0 0 0 0 0 0 0 0 0
0 0 0 0 0 0 0 0 0 0 0 0 0 0 0 0 0 0 0 0 0 0 1 2 3 4 6 9 13 18 20 19 15 9 6 4 2 1 0 0 0 0 0 0 0 0 0 0 0
0 0 0 0 0 0 0 0 0 0 0 0 0 0 0 0 0 0 0 0 0 0 1 2 4 5 7 11 16 21 24 24 21 17 14 10 6 3 1 0 0 0 0 0 0 0 0 0 0
0 0 0 0 0 0 0 0 0 0 0 0 0 0 0 0 0 0 0 0 0 0 0 2 4 4 6 10 15 21 25 26 27 25 22 17 12 7 3 1 1 0 0 0 0 0 0 0 0
0 0 0 0 0 0 0 0 0 0 0 0 0 0 0 0 0 0 0 0 0 0 0 1 2 2 3 5 9 13 16 19 21 22 21 18 13 8 5 3 2 1 0 0 0 0 0 0 1
0 0 0 0 0 0 0 0 0 0 0 0 0 0 0 0 0 0 0 0 0 0 0 0 0 0 0 1 2 4 5 7 9 11 12 11 9 7 5 4 2 1 0 0 0 0 0 0 1
0 0 0 0 0 0 0 0 0 0 0 0 0 0 1 2 1 0 0 0 0 0 0 0 0 0 0 0 1 1 1 1 2 4 6 5 4 4 4 4 6 4 1 0 0 0 0 0 1
0 0 0 0 0 0 0 0 0 0 0 0 0 0 3 5 4 1 0 0 0 0 0 0 0 0 0 1 2 2 0 0 0 2 3 2 1 2 2 7 14 12 3 0 0 1 1 0 0
0 0 0 0 0 0 0 0 0 0 0 0 0 1 6 10 8 3 0 0 0 0 0 0 0 0 0 1 2 2 1 1 1 1 1 0 0 0 1 8 18 15 4 0 1 2 2 2 2
0 0 0 0 0 0 0 0 0 0 0 0 1 6 11 14 11 5 1 0 0 0 0 0 1 2 2 2 2 2 2 3 2 1 0 2 4 3 2 7 13 12 5 3 5 6 5 4 4
0 0 0 0 0 0 0 0 0 0 0 0 5 14 20 16 10 5 1 0 0 0 0 0 2 7 10 11 10 7 5 3 3 3 3 5 9 7 5 10 13 12 10 10 11 12 10 8 6
0 0 0 0 0 0 0 0 0 0 0 2 11 23 23 14 7 5 4 2 1 0 0 2 7 16 24 28 26 18 11 6 5 6 6 7 10 9 9 15 17 15 17 21 22 20 18 15 11
0 0 0 0 0 0 0 0 0 0 0 6 19 28 22 13 8 8 9 6 2 0 2 7 15 26 36 41 38 26 14 10 8 8 7 6 7 8 10 14 16 17 21 31 35 32 30 27 23
0 0 0 0 0 0 0 0 0 1 3 11 27 37 33 22 14 11 10 7 3 3 8 17 26 36 45 47 40 25 14 11 10 8 7 5 5 7 9 11 13 17 24 35 42 44 44 44 40
0 0 0 0 0 0 0 1 2 4 7 17 33 45 45 35 23 15 10 9 9 11 20 30 35 40 47 47 37 22 13 11 8 7 5 3 3 5 7 9 10 15 22 31 42 52 59 60 57
0 0 0 0 0 0 0 2 5 8 11 21 34 42 44 39 31 24 20 23 27 29 33 36 35 35 38 38 28 16 10 7 5 3 2 2 2 3 3 4 6 9 14 22 34 52 64 65 64
0 0 0 0 0 0 0 1 5 7 11 21 32 38 40 42 42 41 42 45 50 50 44 36 29 27 26 23 16 8 4 3 2 1 1 1 1 1 1 1 2 3 6 11 21 36 48 54 57
0 0 0 0 0 0 0 0 1 3 7 17 29 37 42 48 57 61 63 61 61 58 47 33 25 22 17 14 10 5 3 2 1 0 1 1 0 0 1 0 0 0 2 5 11 17 22 29 38
0 0 0 0 0 0 0 0 0 1 4 12 25 38 49 59 67 70 68 62 57 52 41 28 22 18 13 13 12 9 7 5 2 1 1 1 0 0 0 0 0 0 1 3 5 6 7 11 16
0 0 0 0 0 0 0 0 0 0 3 11 25 41 56 65 67 64 59 52 45 39 30 21 18 18 17 18 17 15 13 8 3 2 2 1 1 1 0 0 0 0 1 1 1 2 3 4 5
0 0 0 0 0 0 0 0 0 0 3 11 23 37 52 61 59 54 48 40 32 26 20 16 16 19 23 27 29 25 17 7 3 3 2 2 2 1 0 0 0 0 0 0 0 0 1 3 3
0 0 0 0 0 0 0 0 0 0 3 9 18 30 43 49 47 41 35 30 24 19 14 11 14 22 31 42 50 45 27 12 7 6 4 3 2 1 0 0 0 0 0 0 0 0 0 1 1
0 0 0 0 0 0 0 0 0 0 1 5 14 25 32 35 31 24 20 18 17 14 11 10 15 26 40 55 67 63 47 32 22 15 8 4 2 1 0 0 0 0 0 0 0 0 0 0 0
0 0 0 0 0 0 0 0 0 0 0 2 8 15 17 16 14 10 7 7 7 9 10 12 19 30 43 58 70 72 64 50 36 24 14 8 4 1 0 0 0 0 0 0 0 0 0 0 0
0 0 0 0 0 0 0 0 0 0 0 0 2 3 3 3 3 2 1 1 2 4 7 12 20 30 41 53 64 70 68 56 42 33 23 14 8 4 1 0 0 0 0 0 0 0 0 0 0
0 0 0 0 0 0 0 0 0 0 0 0 0 0 0 0 0 0 0 0 0 1 3 8 16 24 31 39 46 51 52 49 45 41 33 23 17 11 5 3 1 0 0 0 0 0 0 0 0
0 0 0 0 0 0 0 0 1 1 1 0 0 0 0 0 0 0 0 0 0 0 0 3 7 11 14 19 23 26 31 35 37 35 32 28 24 20 14 8 4 2 0 0 0 0 0 0 0
0 0 0 0 0 0 0 0 1 1 1 0 0 0 0 0 0 0 0 0 0 0 0 0 1 2 3 5 7 11 15 19 20 20 20 22 23 22 18 12 7 3 1 0 0 0 0 0 0
0 0 0 0 0 0 0 0 0 1 0 0 0 0 0 0 0 0 0 0 0 0 0 0 0 0 0 1 2 5 9 10 10 11 12 15 19 18 15 12 8 4 1 0 0 0 0 0 0